| time (UTC) | temp F | wind direction | speed MPH | gust MPH | rain 1hr in | rain 24hr in | rain mn in | humidity % | barometer mb |
| 20260831211017 | 77 | 306 | 1.0 | 4.0 | 0.00 | 0.00 | 0.00 | 54 | 1010.0 |
| 20260831210523 | 77 | 146 | 0.0 | 3.0 | 0.00 | 0.00 | 0.00 | 55 | 1010.0 |
| 20260831210035 | 77 | 300 | 1.0 | 3.0 | 0.00 | 0.00 | 0.00 | 55 | 1010.1 |
| 20260831205522 | 77 | 0 | 1.0 | 3.0 | 0.00 | 0.00 | 0.00 | 57 | 1010.2 |
| 20260831205025 | 77 | 9 | 1.0 | 4.0 | 0.00 | 0.00 | 0.00 | 55 | 1010.2 |
| 20260831204545 | 76 | 350 | 1.0 | 4.0 | 0.00 | 0.00 | 0.00 | 55 | 1010.2 |
| 20260831204021 | 76 | 167 | 1.0 | 4.0 | 0.00 | 0.00 | 0.00 | 58 | 1010.4 |
| 20260831203522 | 76 | 61 | 1.0 | 4.0 | 0.00 | 0.00 | 0.00 | 56 | 1010.4 |
| 20260831203050 | 76 | 304 | 1.0 | 4.0 | 0.00 | 0.00 | 0.00 | 56 | 1010.5 |
| 20260831202520 | 76 | 279 | 1.0 | 6.0 | 0.00 | 0.00 | 0.00 | 58 | 1010.6 |
| 20260831202019 | 75 | 101 | 0.0 | 6.0 | 0.00 | 0.00 | 0.00 | 59 | 1010.7 |
| 20260831201537 | 75 | 348 | 0.0 | 3.0 | 0.00 | 0.00 | 0.00 | 58 | 1010.8 |
| 20260831201023 | 75 | 286 | 0.0 | 6.0 | 0.00 | 0.00 | 0.00 | 60 | 1010.9 |
| 20260831200523 | 74 | 248 | 2.0 | 6.0 | 0.00 | 0.00 | 0.00 | 60 | 1010.9 |
| 20260831200040 | 74 | 317 | 1.0 | 3.0 | 0.00 | 0.00 | 0.00 | 60 | 1010.9 |
| 20260831195521 | 73 | 292 | 0.0 | 5.0 | 0.00 | 0.00 | 0.00 | 62 | 1011.1 |
| 20260831195021 | 73 | 100 | 1.0 | 5.0 | 0.00 | 0.00 | 0.00 | 61 | 1011.2 |
| 20260831194535 | 72 | 139 | 1.0 | 5.0 | 0.00 | 0.00 | 0.00 | 60 | 1011.3 |
| 20260831194024 | 72 | 169 | 1.0 | 4.0 | 0.00 | 0.00 | 0.00 | 62 | 1011.3 |
| 20260831193521 | 72 | 298 | 1.0 | 5.0 | 0.00 | 0.00 | 0.00 | 61 | 1011.5 |
| 20260831193040 | 72 | 173 | 1.0 | 5.0 | 0.00 | 0.00 | 0.00 | 63 | 1011.6 |
| 20260831192521 | 71 | 315 | 1.0 | 4.0 | 0.00 | 0.00 | 0.00 | 65 | 1011.6 |
| 20260831192020 | 71 | 93 | 1.0 | 3.0 | 0.00 | 0.00 | 0.00 | 65 | 1011.6 |
| 20260831191549 | 70 | 284 | 1.0 | 4.0 | 0.00 | 0.00 | 0.00 | 65 | 1011.7 |
| 20260831191024 | 70 | 51 | 1.0 | 4.0 | 0.00 | 0.00 | 0.00 | 65 | 1011.8 |
| 20260831190519 | 70 | 0 | 0.0 | 3.0 | 0.00 | 0.00 | 0.00 | 67 | 1011.8 |
| 20260831190036 | 69 | 268 | 1.0 | 4.0 | 0.00 | 0.00 | 0.00 | 66 | 1011.8 |
| 20260831185520 | 69 | 268 | 1.0 | 4.0 | 0.00 | 0.00 | 0.00 | 66 | 1011.9 |
| 20260831185021 | 69 | 115 | 0.0 | 6.0 | 0.00 | 0.00 | 0.00 | 66 | 1012.0 |
| 20260831184541 | 69 | 51 | 1.0 | 6.0 | 0.00 | 0.00 | 0.00 | 67 | 1012.1 |
| 20260831184028 | 68 | 225 | 0.0 | 4.0 | 0.00 | 0.00 | 0.00 | 67 | 1012.1 |
| 20260831183520 | 69 | 296 | 1.0 | 4.0 | 0.00 | 0.00 | 0.00 | 67 | 1012.1 |
| 20260831183037 | 69 | 317 | 1.0 | 4.0 | 0.00 | 0.00 | 0.00 | 67 | 1012.2 |
| 20260831182521 | 69 | 315 | 1.0 | 4.0 | 0.00 | 0.00 | 0.00 | 68 | 1012.2 |
| 20260831182021 | 68 | 342 | 1.0 | 4.0 | 0.00 | 0.00 | 0.00 | 69 | 1012.3 |
| 20260831181536 | 68 | 336 | 1.0 | 3.0 | 0.00 | 0.00 | 0.00 | 68 | 1012.3 |
| 20260831181020 | 68 | 323 | 1.0 | 6.0 | 0.00 | 0.00 | 0.00 | 69 | 1012.4 |
| 20260831180520 | 68 | 61 | 2.0 | 6.0 | 0.00 | 0.00 | 0.00 | 70 | 1012.4 |
| 20260831180038 | 67 | 281 | 0.0 | 4.0 | 0.00 | 0.00 | 0.00 | 70 | 1012.4 |
| 20260831175520 | 67 | 302 | 0.0 | 4.0 | 0.00 | 0.00 | 0.00 | 73 | 1012.5 |
| 20260831175018 | 66 | 257 | 1.0 | 5.0 | 0.00 | 0.00 | 0.00 | 72 | 1012.4 |
| 20260831174536 | 65 | 65 | 1.0 | 5.0 | 0.00 | 0.00 | 0.00 | 73 | 1012.6 |
| 20260831174021 | 65 | 67 | 1.0 | 5.0 | 0.00 | 0.00 | 0.00 | 73 | 1012.7 |
| 20260831173519 | 64 | 257 | 1.0 | 3.0 | 0.00 | 0.00 | 0.00 | 74 | 1012.7 |
| 20260831173037 | 64 | 321 | 0.0 | 3.0 | 0.00 | 0.00 | 0.00 | 74 | 1012.6 |
| 20260831172517 | 64 | 173 | 1.0 | 3.0 | 0.00 | 0.00 | 0.00 | 75 | 1012.7 |
| 20260831172025 | 63 | 314 | 0.0 | 4.0 | 0.00 | 0.00 | 0.00 | 76 | 1012.8 |
| 20260831171537 | 63 | 0 | 1.0 | 4.0 | 0.00 | 0.00 | 0.00 | 77 | 1012.8 |
| 20260831171017 | 62 | 310 | 1.0 | 4.0 | 0.00 | 0.00 | 0.00 | 77 | 1012.8 |
| 20260831170520 | 62 | 348 | 1.0 | 4.0 | 0.00 | 0.00 | 0.00 | 77 | 1012.8 |
| 20260831170037 | 62 | 318 | 1.0 | 3.0 | 0.00 | 0.00 | 0.00 | 78 | 1012.8 |
| 20260831165524 | 61 | 317 | 0.0 | 4.0 | 0.00 | 0.00 | 0.00 | 78 | 1012.8 |
| 20260831165021 | 61 | 348 | 1.0 | 7.0 | 0.00 | 0.00 | 0.00 | 79 | 1012.9 |
| 20260831164545 | 61 | 318 | 1.0 | 7.0 | 0.00 | 0.00 | 0.00 | 79 | 1012.9 |
| 20260831164021 | 60 | 303 | 2.0 | 7.0 | 0.00 | 0.00 | 0.00 | 80 | 1013.1 |
| 20260831163521 | 60 | 342 | 1.0 | 4.0 | 0.00 | 0.00 | 0.00 | 81 | 1013.1 |
| 20260831163040 | 60 | 5 | 1.0 | 4.0 | 0.00 | 0.00 | 0.00 | 81 | 1013.1 |
| 20260831162521 | 59 | 314 | 1.0 | 4.0 | 0.00 | 0.00 | 0.00 | 82 | 1013.2 |
| 20260831162019 | 59 | 283 | 0.0 | 3.0 | 0.00 | 0.00 | 0.00 | 83 | 1013.3 |
| 20260831161535 | 59 | 266 | 0.0 | 3.0 | 0.00 | 0.00 | 0.00 | 84 | 1013.3 |
| 20260831161016 | 58 | 292 | 0.0 | 4.0 | 0.00 | 0.00 | 0.00 | 85 | 1013.3 |
| 20260831160520 | 58 | 126 | 0.0 | 4.0 | 0.00 | 0.00 | 0.00 | 86 | 1013.3 |
| 20260831160038 | 58 | 298 | 0.0 | 2.0 | 0.00 | 0.00 | 0.00 | 87 | 1013.4 |
| 20260831155521 | 57 | 0 | 0.0 | 2.0 | 0.00 | 0.00 | 0.00 | 87 | 1013.5 |
| 20260831155021 | 57 | 334 | 1.0 | 2.0 | 0.00 | 0.00 | 0.00 | 88 | 1013.5 |
| 20260831154556 | 56 | 0 | 0.0 | 2.0 | 0.00 | 0.00 | 0.00 | 89 | 1013.5 |
| 20260831154021 | 56 | 0 | 0.0 | 2.0 | 0.00 | 0.00 | 0.00 | 89 | 1013.5 |
| 20260831153523 | 56 | 314 | 0.0 | 2.0 | 0.00 | 0.00 | 0.00 | 89 | 1013.6 |
| 20260831153042 | 55 | 0 | 0.0 | 2.0 | 0.00 | 0.00 | 0.00 | 89 | 1013.6 |
| 20260831152520 | 55 | 0 | 0.0 | 2.0 | 0.00 | 0.00 | 0.00 | 89 | 1013.6 |
| 20260831152017 | 55 | 0 | 0.0 | 2.0 | 0.00 | 0.00 | 0.00 | 89 | 1013.6 |
| 20260831151535 | 54 | 0 | 0.0 | 0.0 | 0.00 | 0.00 | 0.00 | 89 | 1013.7 |
| 20260831151020 | 54 | 0 | 0.0 | 0.0 | 0.00 | 0.00 | 0.00 | 89 | 1013.7 |
| 20260831150522 | 53 | 0 | 0.0 | 0.0 | 0.00 | 0.00 | 0.00 | 89 | 1013.8 |
| 20260831150036 | 53 | 0 | 0.0 | 0.0 | 0.00 | 0.00 | 0.00 | 89 | 1013.8 |
| 20260831145520 | 52 | 0 | 0.0 | 0.0 | 0.00 | 0.00 | 0.00 | 89 | 1013.8 |
| 20260831145026 | 52 | 0 | 0.0 | 0.0 | 0.00 | 0.00 | 0.00 | 89 | 1013.8 |
| 20260831144539 | 52 | 0 | 0.0 | 0.0 | 0.00 | 0.00 | 0.00 | 89 | 1013.8 |
| 20260831144020 | 52 | 0 | 0.0 | 0.0 | 0.00 | 0.00 | 0.00 | 88 | 1013.8 |
| 20260831143521 | 52 | 0 | 0.0 | 0.0 | 0.00 | 0.00 | 0.00 | 88 | 1013.7 |
| 20260831143040 | 52 | 0 | 0.0 | 0.0 | 0.00 | 0.00 | 0.00 | 88 | 1013.8 |
| 20260831142518 | 52 | 0 | 0.0 | 0.0 | 0.00 | 0.00 | 0.00 | 88 | 1013.7 |
| 20260831142020 | 51 | 0 | 0.0 | 0.0 | 0.00 | 0.00 | 0.00 | 88 | 1013.8 |
| 20260831141537 | 51 | 0 | 0.0 | 0.0 | 0.00 | 0.00 | 0.00 | 88 | 1013.8 |
| 20260831141020 | 51 | 0 | 0.0 | 0.0 | 0.00 | 0.00 | 0.00 | 88 | 1013.7 |
| 20260831140520 | 51 | 0 | 0.0 | 0.0 | 0.00 | 0.00 | 0.00 | 88 | 1013.7 |
| 20260831140037 | 51 | 0 | 0.0 | 0.0 | 0.00 | 0.00 | 0.00 | 88 | 1013.7 |
| 20260831135521 | 52 | 0 | 0.0 | 0.0 | 0.00 | 0.00 | 0.00 | 88 | 1013.8 |
| 20260831135020 | 52 | 0 | 0.0 | 0.0 | 0.00 | 0.00 | 0.00 | 88 | 1013.8 |
| 20260831134544 | 52 | 0 | 0.0 | 0.0 | 0.00 | 0.00 | 0.00 | 88 | 1013.7 |
| 20260831134020 | 52 | 0 | 0.0 | 0.0 | 0.00 | 0.00 | 0.00 | 87 | 1013.6 |
| 20260831133521 | 52 | 0 | 0.0 | 0.0 | 0.00 | 0.00 | 0.00 | 87 | 1013.6 |
| 20260831133038 | 52 | 0 | 0.0 | 0.0 | 0.00 | 0.00 | 0.00 | 87 | 1013.7 |
| 20260831132522 | 52 | 0 | 0.0 | 0.0 | 0.00 | 0.00 | 0.00 | 87 | 1013.8 |
| 20260831132021 | 52 | 0 | 0.0 | 0.0 | 0.00 | 0.00 | 0.00 | 87 | 1013.8 |
| 20260831131536 | 52 | 0 | 0.0 | 0.0 | 0.00 | 0.00 | 0.00 | 87 | 1013.9 |
| 20260831131021 | 52 | 0 | 0.0 | 0.0 | 0.00 | 0.00 | 0.00 | 87 | 1013.8 |
| 20260831130518 | 52 | 0 | 0.0 | 0.0 | 0.00 | 0.00 | 0.00 | 87 | 1013.9 |
| 20260831130040 | 52 | 0 | 0.0 | 0.0 | 0.00 | 0.00 | 0.00 | 87 | 1014.0 |
| 20260831125525 | 53 | 0 | 0.0 | 0.0 | 0.00 | 0.00 | 0.00 | 87 | 1013.9 |
| 20260831125021 | 53 | 0 | 0.0 | 0.0 | 0.00 | 0.00 | 0.00 | 87 | 1014.0 |
| 20260831124551 | 53 | 0 | 0.0 | 0.0 | 0.00 | 0.00 | 0.00 | 87 | 1014.0 |
| 20260831124022 | 53 | 0 | 0.0 | 0.0 | 0.00 | 0.00 | 0.00 | 87 | 1014.0 |
| 20260831123522 | 53 | 0 | 0.0 | 0.0 | 0.00 | 0.00 | 0.00 | 87 | 1014.1 |
| 20260831123038 | 53 | 0 | 0.0 | 0.0 | 0.00 | 0.00 | 0.00 | 87 | 1014.1 |
| 20260831122525 | 53 | 0 | 0.0 | 0.0 | 0.00 | 0.00 | 0.00 | 86 | 1014.1 |
| 20260831122020 | 53 | 0 | 0.0 | 0.0 | 0.00 | 0.00 | 0.00 | 86 | 1014.2 |
| 20260831121538 | 53 | 0 | 0.0 | 0.0 | 0.00 | 0.00 | 0.00 | 86 | 1014.1 |
| 20260831121021 | 53 | 0 | 0.0 | 0.0 | 0.00 | 0.00 | 0.00 | 86 | 1014.2 |
| 20260831120521 | 54 | 0 | 0.0 | 0.0 | 0.00 | 0.00 | 0.00 | 86 | 1014.3 |
| 20260831120047 | 54 | 0 | 0.0 | 0.0 | 0.00 | 0.00 | 0.00 | 86 | 1014.3 |
| 20260831115519 | 54 | 0 | 0.0 | 0.0 | 0.00 | 0.00 | 0.00 | 86 | 1014.4 |
| 20260831115024 | 54 | 0 | 0.0 | 0.0 | 0.00 | 0.00 | 0.00 | 86 | 1014.3 |
| 20260831114548 | 54 | 0 | 0.0 | 0.0 | 0.00 | 0.00 | 0.00 | 86 | 1014.4 |
| 20260831114021 | 54 | 0 | 0.0 | 0.0 | 0.00 | 0.00 | 0.00 | 86 | 1014.4 |
| 20260831113518 | 54 | 0 | 0.0 | 0.0 | 0.00 | 0.00 | 0.00 | 86 | 1014.4 |
| 20260831113038 | 54 | 0 | 0.0 | 0.0 | 0.00 | 0.00 | 0.00 | 86 | 1014.4 |
| 20260831112522 | 54 | 0 | 0.0 | 0.0 | 0.00 | 0.00 | 0.00 | 86 | 1014.4 |
| 20260831112020 | 54 | 0 | 0.0 | 0.0 | 0.00 | 0.00 | 0.00 | 86 | 1014.5 |
| 20260831111535 | 54 | 0 | 0.0 | 0.0 | 0.00 | 0.00 | 0.00 | 86 | 1014.5 |
| 20260831111020 | 54 | 0 | 0.0 | 0.0 | 0.00 | 0.00 | 0.00 | 86 | 1014.5 |
| 20260831110517 | 54 | 0 | 0.0 | 0.0 | 0.00 | 0.00 | 0.00 | 86 | 1014.6 |
| 20260831110042 | 54 | 0 | 0.0 | 0.0 | 0.00 | 0.00 | 0.00 | 85 | 1014.6 |
| 20260831105522 | 54 | 0 | 0.0 | 0.0 | 0.00 | 0.00 | 0.00 | 85 | 1014.5 |
| 20260831105023 | 54 | 0 | 0.0 | 0.0 | 0.00 | 0.00 | 0.00 | 85 | 1014.6 |
| 20260831104547 | 54 | 0 | 0.0 | 0.0 | 0.00 | 0.00 | 0.00 | 85 | 1014.6 |
| 20260831104021 | 54 | 0 | 0.0 | 0.0 | 0.00 | 0.00 | 0.00 | 85 | 1014.6 |
| 20260831103517 | 54 | 0 | 0.0 | 0.0 | 0.00 | 0.00 | 0.00 | 85 | 1014.7 |
| 20260831103039 | 54 | 0 | 0.0 | 0.0 | 0.00 | 0.00 | 0.00 | 85 | 1014.7 |
| 20260831102522 | 54 | 0 | 0.0 | 0.0 | 0.00 | 0.00 | 0.00 | 85 | 1014.7 |
| 20260831102020 | 54 | 0 | 0.0 | 0.0 | 0.00 | 0.00 | 0.00 | 85 | 1014.9 |
| 20260831101542 | 54 | 0 | 0.0 | 0.0 | 0.00 | 0.00 | 0.00 | 85 | 1014.9 |
| 20260831101019 | 54 | 0 | 0.0 | 0.0 | 0.00 | 0.00 | 0.00 | 85 | 1014.9 |
| 20260831100521 | 54 | 0 | 0.0 | 0.0 | 0.00 | 0.00 | 0.00 | 85 | 1014.9 |
| 20260831100044 | 54 | 0 | 0.0 | 0.0 | 0.00 | 0.00 | 0.00 | 85 | 1015.0 |
| 20260831095521 | 54 | 0 | 0.0 | 0.0 | 0.00 | 0.00 | 0.00 | 85 | 1015.1 |
| 20260831095021 | 54 | 0 | 0.0 | 0.0 | 0.00 | 0.00 | 0.00 | 85 | 1015.1 |
| 20260831094535 | 54 | 0 | 0.0 | 0.0 | 0.00 | 0.00 | 0.00 | 85 | 1015.2 |
| 20260831094020 | 54 | 0 | 0.0 | 0.0 | 0.00 | 0.00 | 0.00 | 85 | 1015.1 |
| 20260831093519 | 54 | 0 | 0.0 | 0.0 | 0.00 | 0.00 | 0.00 | 85 | 1015.3 |
| 20260831093042 | 54 | 0 | 0.0 | 0.0 | 0.00 | 0.00 | 0.00 | 85 | 1015.3 |
| 20260831092519 | 54 | 0 | 0.0 | 0.0 | 0.00 | 0.00 | 0.00 | 86 | 1015.3 |
| 20260831092020 | 54 | 0 | 0.0 | 0.0 | 0.00 | 0.00 | 0.00 | 86 | 1015.3 |
| 20260831091535 | 54 | 0 | 0.0 | 0.0 | 0.00 | 0.00 | 0.00 | 86 | 1015.3 |
| 20260831091021 | 54 | 0 | 0.0 | 0.0 | 0.00 | 0.00 | 0.00 | 86 | 1015.3 |
| 20260831090518 | 54 | 0 | 0.0 | 0.0 | 0.00 | 0.00 | 0.00 | 86 | 1015.3 |
| 20260831090038 | 54 | 0 | 0.0 | 0.0 | 0.00 | 0.00 | 0.00 | 86 | 1015.3 |
| 20260831085521 | 54 | 0 | 0.0 | 0.0 | 0.00 | 0.00 | 0.00 | 85 | 1015.3 |
| 20260831085021 | 54 | 0 | 0.0 | 0.0 | 0.00 | 0.00 | 0.00 | 85 | 1015.5 |
| 20260831084535 | 54 | 0 | 0.0 | 0.0 | 0.00 | 0.00 | 0.00 | 85 | 1015.6 |
| 20260831084020 | 54 | 0 | 0.0 | 0.0 | 0.00 | 0.00 | 0.00 | 85 | 1015.7 |
| 20260831083520 | 54 | 0 | 0.0 | 0.0 | 0.00 | 0.00 | 0.00 | 85 | 1015.6 |
| 20260831083045 | 54 | 0 | 0.0 | 0.0 | 0.00 | 0.00 | 0.00 | 85 | 1015.7 |
| 20260831082521 | 55 | 0 | 0.0 | 0.0 | 0.00 | 0.00 | 0.00 | 85 | 1015.8 |
| 20260831082019 | 55 | 0 | 0.0 | 0.0 | 0.00 | 0.00 | 0.00 | 85 | 1015.8 |
| 20260831081540 | 55 | 0 | 0.0 | 0.0 | 0.00 | 0.00 | 0.00 | 84 | 1015.8 |
| 20260831081022 | 55 | 0 | 0.0 | 0.0 | 0.00 | 0.00 | 0.00 | 84 | 1015.8 |
| 20260831080520 | 55 | 0 | 0.0 | 0.0 | 0.00 | 0.00 | 0.00 | 84 | 1015.9 |
| 20260831080038 | 55 | 0 | 0.0 | 0.0 | 0.00 | 0.00 | 0.00 | 84 | 1016.0 |
| 20260831075518 | 55 | 0 | 0.0 | 0.0 | 0.00 | 0.00 | 0.00 | 84 | 1015.9 |
| 20260831075022 | 55 | 0 | 0.0 | 0.0 | 0.00 | 0.00 | 0.00 | 84 | 1015.8 |
| 20260831074540 | 55 | 0 | 0.0 | 0.0 | 0.00 | 0.00 | 0.00 | 83 | 1016.0 |
| 20260831074025 | 56 | 0 | 0.0 | 0.0 | 0.00 | 0.00 | 0.00 | 83 | 1015.9 |
| 20260831073519 | 56 | 0 | 0.0 | 0.0 | 0.00 | 0.00 | 0.00 | 83 | 1016.0 |
| 20260831073048 | 56 | 0 | 0.0 | 0.0 | 0.00 | 0.00 | 0.00 | 83 | 1016.1 |
| 20260831072524 | 56 | 0 | 0.0 | 0.0 | 0.00 | 0.00 | 0.00 | 83 | 1016.1 |
| 20260831072021 | 56 | 0 | 0.0 | 0.0 | 0.00 | 0.00 | 0.00 | 83 | 1016.1 |
| 20260831071538 | 56 | 0 | 0.0 | 0.0 | 0.00 | 0.00 | 0.00 | 83 | 1016.1 |
| 20260831071021 | 56 | 0 | 0.0 | 0.0 | 0.00 | 0.00 | 0.00 | 83 | 1016.2 |
| 20260831070521 | 57 | 0 | 0.0 | 0.0 | 0.00 | 0.00 | 0.00 | 82 | 1016.3 |
| 20260831070047 | 57 | 0 | 0.0 | 0.0 | 0.00 | 0.00 | 0.00 | 82 | 1016.3 |
| 20260831065521 | 57 | 0 | 0.0 | 0.0 | 0.00 | 0.00 | 0.00 | 82 | 1016.3 |
| 20260831065022 | 57 | 0 | 0.0 | 0.0 | 0.00 | 0.00 | 0.00 | 82 | 1016.3 |
| 20260831064542 | 57 | 0 | 0.0 | 0.0 | 0.00 | 0.00 | 0.00 | 82 | 1016.4 |
| 20260831064015 | 57 | 0 | 0.0 | 0.0 | 0.00 | 0.00 | 0.00 | 82 | 1016.5 |
| 20260831063517 | 57 | 0 | 0.0 | 0.0 | 0.00 | 0.00 | 0.00 | 82 | 1016.5 |
| 20260831063038 | 58 | 0 | 0.0 | 0.0 | 0.00 | 0.00 | 0.00 | 81 | 1016.5 |
| 20260831062521 | 58 | 0 | 0.0 | 0.0 | 0.00 | 0.00 | 0.00 | 81 | 1016.6 |
| 20260831062022 | 58 | 0 | 0.0 | 0.0 | 0.00 | 0.00 | 0.00 | 80 | 1016.6 |
| 20260831061537 | 58 | 0 | 0.0 | 0.0 | 0.00 | 0.00 | 0.00 | 80 | 1016.6 |
| 20260831061022 | 58 | 0 | 0.0 | 0.0 | 0.00 | 0.00 | 0.00 | 80 | 1016.7 |
| 20260831060526 | 58 | 0 | 0.0 | 0.0 | 0.00 | 0.00 | 0.00 | 80 | 1016.7 |
| 20260831060042 | 59 | 0 | 0.0 | 0.0 | 0.00 | 0.00 | 0.00 | 80 | 1016.6 |
| 20260831055520 | 59 | 0 | 0.0 | 0.0 | 0.00 | 0.00 | 0.00 | 80 | 1016.7 |
| 20260831055025 | 59 | 0 | 0.0 | 0.0 | 0.00 | 0.00 | 0.00 | 80 | 1016.7 |
| 20260831054542 | 59 | 0 | 0.0 | 0.0 | 0.00 | 0.00 | 0.00 | 79 | 1016.7 |
| 20260831054021 | 59 | 0 | 0.0 | 0.0 | 0.00 | 0.00 | 0.00 | 79 | 1016.9 |
| 20260831053521 | 59 | 0 | 0.0 | 0.0 | 0.00 | 0.00 | 0.00 | 79 | 1017.0 |
| 20260831053037 | 59 | 0 | 0.0 | 0.0 | 0.00 | 0.00 | 0.00 | 79 | 1017.0 |
| 20260831052517 | 60 | 0 | 0.0 | 0.0 | 0.00 | 0.00 | 0.00 | 78 | 1017.1 |
| 20260831052020 | 60 | 0 | 0.0 | 0.0 | 0.00 | 0.00 | 0.00 | 78 | 1017.1 |
| 20260831051540 | 60 | 0 | 0.0 | 0.0 | 0.00 | 0.00 | 0.00 | 78 | 1017.1 |
| 20260831051016 | 60 | 0 | 0.0 | 0.0 | 0.00 | 0.00 | 0.00 | 78 | 1017.1 |
| 20260831050519 | 60 | 0 | 0.0 | 0.0 | 0.00 | 0.00 | 0.00 | 78 | 1017.2 |
| 20260831050057 | 60 | 0 | 0.0 | 0.0 | 0.00 | 0.00 | 0.00 | 78 | 1017.1 |
| 20260831045517 | 60 | 0 | 0.0 | 0.0 | 0.00 | 0.00 | 0.00 | 77 | 1017.1 |
| 20260831045023 | 61 | 0 | 0.0 | 0.0 | 0.00 | 0.00 | 0.00 | 77 | 1017.2 |
| 20260831044551 | 61 | 0 | 0.0 | 0.0 | 0.00 | 0.00 | 0.00 | 77 | 1017.2 |
| 20260831044018 | 61 | 0 | 0.0 | 0.0 | 0.00 | 0.00 | 0.00 | 76 | 1017.2 |
| 20260831043521 | 61 | 0 | 0.0 | 0.0 | 0.00 | 0.00 | 0.00 | 76 | 1017.3 |
| 20260831043036 | 61 | 0 | 0.0 | 0.0 | 0.00 | 0.00 | 0.00 | 76 | 1017.3 |
| 20260831042520 | 61 | 0 | 0.0 | 0.0 | 0.00 | 0.00 | 0.00 | 75 | 1017.4 |
| 20260831042020 | 62 | 0 | 0.0 | 0.0 | 0.00 | 0.00 | 0.00 | 75 | 1017.3 |
| 20260831041539 | 62 | 0 | 0.0 | 0.0 | 0.00 | 0.00 | 0.00 | 74 | 1017.4 |
| 20260831041021 | 62 | 0 | 0.0 | 0.0 | 0.00 | 0.00 | 0.00 | 74 | 1017.4 |
| 20260831040521 | 62 | 0 | 0.0 | 0.0 | 0.00 | 0.00 | 0.00 | 73 | 1017.4 |
| 20260831040037 | 62 | 0 | 0.0 | 0.0 | 0.00 | 0.00 | 0.00 | 73 | 1017.3 |
| 20260831035520 | 62 | 0 | 0.0 | 0.0 | 0.00 | 0.00 | 0.00 | 72 | 1017.4 |
| 20260831035020 | 63 | 0 | 0.0 | 0.0 | 0.00 | 0.00 | 0.00 | 72 | 1017.3 |
| 20260831034535 | 63 | 0 | 0.0 | 0.0 | 0.00 | 0.00 | 0.00 | 72 | 1017.2 |
| 20260831034020 | 63 | 0 | 0.0 | 0.0 | 0.00 | 0.00 | 0.00 | 72 | 1017.2 |
| 20260831033523 | 63 | 0 | 0.0 | 0.0 | 0.00 | 0.00 | 0.00 | 71 | 1017.2 |
| 20260831033042 | 63 | 0 | 0.0 | 0.0 | 0.00 | 0.00 | 0.00 | 70 | 1017.2 |
| 20260831032525 | 64 | 0 | 0.0 | 0.0 | 0.00 | 0.00 | 0.00 | 70 | 1017.2 |
| 20260831032018 | 64 | 0 | 0.0 | 0.0 | 0.00 | 0.00 | 0.00 | 69 | 1017.2 |
| 20260831031544 | 64 | 0 | 0.0 | 0.0 | 0.00 | 0.00 | 0.00 | 68 | 1017.2 |
| 20260831031020 | 64 | 0 | 0.0 | 0.0 | 0.00 | 0.00 | 0.00 | 67 | 1017.1 |
| 20260831030520 | 65 | 0 | 0.0 | 2.0 | 0.00 | 0.00 | 0.00 | 66 | 1017.1 |
| 20260831030038 | 65 | 0 | 0.0 | 2.0 | 0.00 | 0.00 | 0.00 | 66 | 1017.1 |
| 20260831025521 | 65 | 0 | 0.0 | 0.0 | 0.00 | 0.00 | 0.00 | 66 | 1017.1 |
| 20260831025022 | 66 | 0 | 0.0 | 0.0 | 0.00 | 0.00 | 0.00 | 65 | 1017.1 |
| 20260831024605 | 66 | 0 | 0.0 | 0.0 | 0.00 | 0.00 | 0.00 | 65 | 1017.1 |
| 20260831024020 | 67 | 0 | 0.0 | 0.0 | 0.00 | 0.00 | 0.00 | 65 | 1017.2 |
| 20260831023520 | 67 | 0 | 0.0 | 0.0 | 0.00 | 0.00 | 0.00 | 64 | 1017.2 |
| 20260831023042 | 67 | 0 | 0.0 | 0.0 | 0.00 | 0.00 | 0.00 | 64 | 1017.2 |
| 20260831022518 | 67 | 0 | 0.0 | 0.0 | 0.00 | 0.00 | 0.00 | 63 | 1017.2 |
| 20260831022019 | 68 | 0 | 0.0 | 0.0 | 0.00 | 0.00 | 0.00 | 63 | 1017.2 |
| 20260831021543 | 68 | 0 | 0.0 | 0.0 | 0.00 | 0.00 | 0.00 | 63 | 1017.3 |
| 20260831021021 | 68 | 0 | 0.0 | 0.0 | 0.00 | 0.00 | 0.00 | 63 | 1017.3 |
| 20260831020521 | 69 | 0 | 0.0 | 2.0 | 0.00 | 0.00 | 0.00 | 64 | 1017.3 |
| 20260831015520 | 69 | 0 | 0.0 | 2.0 | 0.00 | 0.00 | 0.00 | 61 | 1017.3 |
| 20260831015020 | 69 | 314 | 0.0 | 2.0 | 0.00 | 0.00 | 0.00 | 62 | 1017.3 |
| 20260831014557 | 69 | 0 | 0.0 | 2.0 | 0.00 | 0.00 | 0.00 | 61 | 1017.3 |
| 20260831014020 | 69 | 311 | 0.0 | 2.0 | 0.00 | 0.00 | 0.00 | 61 | 1017.3 |
| 20260831013523 | 70 | 0 | 0.0 | 2.0 | 0.00 | 0.00 | 0.00 | 60 | 1017.4 |
| 20260831013040 | 70 | 311 | 0.0 | 2.0 | 0.00 | 0.00 | 0.00 | 60 | 1017.4 |
| 20260831012523 | 70 | 309 | 1.0 | 2.0 | 0.00 | 0.00 | 0.00 | 59 | 1017.4 |
| 20260831012019 | 70 | 241 | 0.0 | 2.0 | 0.00 | 0.00 | 0.00 | 61 | 1017.5 |
| 20260831011539 | 71 | 240 | 1.0 | 2.0 | 0.00 | 0.00 | 0.00 | 59 | 1017.5 |
| 20260831011021 | 71 | 276 | 0.0 | 2.0 | 0.00 | 0.00 | 0.00 | 58 | 1017.5 |
| 20260831010521 | 72 | 298 | 0.0 | 2.0 | 0.00 | 0.00 | 0.00 | 56 | 1017.5 |
| 20260831010047 | 73 | 341 | 1.0 | 2.0 | 0.00 | 0.00 | 0.00 | 56 | 1017.6 |
| 20260831005521 | 73 | 0 | 1.0 | 2.0 | 0.00 | 0.00 | 0.00 | 54 | 1017.6 |
| 20260831005023 | 74 | 246 | 1.0 | 3.0 | 0.00 | 0.00 | 0.00 | 53 | 1017.6 |
| 20260831004540 | 74 | 0 | 0.0 | 3.0 | 0.00 | 0.00 | 0.00 | 54 | 1017.7 |
| 20260831004021 | 74 | 313 | 1.0 | 3.0 | 0.00 | 0.00 | 0.00 | 53 | 1017.7 |
| 20260831003521 | 74 | 323 | 1.0 | 3.0 | 0.00 | 0.00 | 0.00 | 53 | 1017.8 |
| 20260831003038 | 75 | 343 | 2.0 | 4.0 | 0.00 | 0.00 | 0.00 | 52 | 1017.8 |
| 20260831002520 | 75 | 323 | 1.0 | 4.0 | 0.00 | 0.00 | 0.00 | 53 | 1017.7 |
| 20260831002021 | 74 | 0 | 1.0 | 3.0 | 0.00 | 0.00 | 0.00 | 53 | 1017.8 |
| 20260831001551 | 74 | 292 | 1.0 | 3.0 | 0.00 | 0.00 | 0.00 | 55 | 1017.8 |
| 20260831001021 | 74 | 236 | 1.0 | 3.0 | 0.00 | 0.00 | 0.00 | 53 | 1017.9 |
| 20260831000521 | 74 | 317 | 1.0 | 3.0 | 0.00 | 0.00 | 0.00 | 52 | 1017.9 |
| 20260831000040 | 75 | 322 | 1.0 | 3.0 | 0.00 | 0.00 | 0.00 | 53 | 1018.0 |
| 20260830235525 | 75 | 281 | 0.0 | 2.0 | 0.00 | 0.00 | 0.00 | 53 | 1018.0 |
| 20260830235023 | 75 | 15 | 0.0 | 3.0 | 0.00 | 0.00 | 0.00 | 53 | 1017.9 |
| 20260830234605 | 74 | 0 | 0.0 | 3.0 | 0.00 | 0.00 | 0.00 | 56 | 1018.0 |
| 20260830234020 | 73 | 249 | 1.0 | 3.0 | 0.00 | 0.00 | 0.00 | 54 | 1018.0 |
| 20260830233522 | 73 | 344 | 1.0 | 3.0 | 0.00 | 0.00 | 0.00 | 54 | 1018.1 |
| 20260830233039 | 74 | 321 | 1.0 | 4.0 | 0.00 | 0.00 | 0.00 | 54 | 1018.1 |
| 20260830232552 | 74 | 217 | 1.0 | 4.0 | 0.00 | 0.00 | 0.00 | 53 | 1018.1 |
| 20260830232019 | 74 | 345 | 1.0 | 3.0 | 0.00 | 0.00 | 0.00 | 54 | 1018.2 |
| 20260830231538 | 74 | 243 | 1.0 | 3.0 | 0.00 | 0.00 | 0.00 | 52 | 1018.3 |
| 20260830231020 | 75 | 327 | 1.0 | 3.0 | 0.00 | 0.00 | 0.00 | 53 | 1018.3 |
| 20260830230520 | 74 | 178 | 0.0 | 3.0 | 0.00 | 0.00 | 0.00 | 56 | 1018.3 |
| 20260830230039 | 73 | 269 | 0.0 | 2.0 | 0.00 | 0.00 | 0.00 | 57 | 1018.4 |
| 20260830225520 | 73 | 266 | 0.0 | 3.0 | 0.00 | 0.00 | 0.00 | 55 | 1018.4 |
| 20260830225022 | 73 | 265 | 1.0 | 4.0 | 0.00 | 0.00 | 0.00 | 54 | 1018.4 |
| 20260830224542 | 74 | 321 | 2.0 | 4.0 | 0.00 | 0.00 | 0.00 | 54 | 1018.5 |
| 20260830224019 | 74 | 239 | 1.0 | 3.0 | 0.00 | 0.00 | 0.00 | 55 | 1018.6 |
| 20260830223518 | 74 | 324 | 1.0 | 3.0 | 0.00 | 0.00 | 0.00 | 56 | 1018.7 |
| 20260830223041 | 73 | 346 | 1.0 | 3.0 | 0.00 | 0.00 | 0.00 | 54 | 1018.7 |
| 20260830222520 | 73 | 69 | 1.0 | 4.0 | 0.00 | 0.00 | 0.00 | 55 | 1018.6 |
| 20260830222027 | 73 | 238 | 1.0 | 5.0 | 0.00 | 0.00 | 0.00 | 57 | 1018.7 |
| 20260830221536 | 73 | 302 | 2.0 | 6.0 | 0.00 | 0.00 | 0.00 | 53 | 1018.8 |
| 20260830221022 | 73 | 225 | 2.0 | 6.0 | 0.00 | 0.00 | 0.00 | 53 | 1018.8 |
| 20260830220520 | 73 | 200 | 1.0 | 6.0 | 0.00 | 0.00 | 0.00 | 54 | 1018.8 |
| 20260830220042 | 73 | 254 | 0.0 | 3.0 | 0.00 | 0.00 | 0.00 | 55 | 1018.8 |
| 20260830215519 | 73 | 261 | 1.0 | 4.0 | 0.00 | 0.00 | 0.00 | 57 | 1018.9 |
| 20260830215020 | 72 | 283 | 1.0 | 4.0 | 0.00 | 0.00 | 0.00 | 54 | 1018.9 |
| 20260830214540 | 73 | 351 | 1.0 | 4.0 | 0.00 | 0.00 | 0.00 | 55 | 1019.0 |
| 20260830214020 | 73 | 104 | 0.0 | 4.0 | 0.00 | 0.00 | 0.00 | 58 | 1019.1 |
| 20260830213520 | 73 | 279 | 2.0 | 4.0 | 0.00 | 0.00 | 0.00 | 54 | 1019.1 |
| 20260830213040 | 73 | 333 | 2.0 | 3.0 | 0.00 | 0.00 | 0.00 | 55 | 1019.2 |
| 20260830212522 | 72 | 235 | 1.0 | 2.0 | 0.00 | 0.00 | 0.00 | 57 | 1019.2 |
| 20260830212023 | 72 | 121 | 1.0 | 3.0 | 0.00 | 0.00 | 0.00 | 59 | 1019.3 |
| 20260830211539 | 71 | 321 | 1.0 | 3.0 | 0.00 | 0.00 | 0.00 | 57 | 1019.2 |